OPS 4682 DEB, 14716

Orbit data source: Space-Track

OPS 4682 DEB, 14716 is space debris in LEO originally from a launch on Sat, 03 Apr 1965 UTC launched from the Air Force Western Test Range (AFWTR). Debris objects in space refer to the collection of defunct objects orbiting the Earth. Examples of debris include non-operational satellites, rocket bodies, and fragments generated from explosions, collisions, or faulty payload assembly.

Loading next visibility...
Identifier
14716, 1965-027P
Orbit
LEO
Country
Flag of USUS
Related business
Manufacturer
Unknown
Mission
Spacecraft
Bus & Motor
Unknown
Mass
Unknown
Launch date (UTC)
1965-04-03 (61 years ago)
Launch vehicle
Unknown
Launch site
Air Force Western Test Range (AFWTR)
Object type
Payload
Rocket body
Debris
Shape & HBR
Unknown shape, 0.1 m
Radar Cross Section
Small (<0.1 m²)

Expand to show TLE details & history
Last TLE update: 1 day ago

TLE from 1 day ago
0 OPS 4682 DEB
1 14716U 65027P   25348.32261597 -.00000227  00000-0 -78416-3 0  9998
2 14716  90.2464   9.9294 0030459  84.1058 301.3531 12.99556294415464
Epoch: 2025-12-14T07:44Z
TLE epoch observation values (Epoch: 2025-12-14T07:44:34.019Z)
Latitude
25.18599°
Longitude
170.43517°
Altitude
1,254.812 km
Speed
7.236 km/s
True Right ascension
00h 39m 15s
True Declination
25° 03' 45"
Sunlit
Object was in daylight at epoch
Visualization orbit readout
Latitude
Unknown
Longitude
Unknown
Altitude
Unknown
Speed
Unknown
Apparent Right ascension
Unknown
Apparent Declination
Unknown
Sunlit
N/A
Visualization observer readout
Local Sidereal Time
13:22:56
Azimuth
Unknown
Elevation
Unknown
Doppler factor
Unknown
Orbital elements
Apogee altitude
1,284.221 km
Perigee altitude
1,237.685 km
Semi-major axis
7,639.09 km
Eccentricity
0.00305
Inclination
90.2464°
RAAN
9.9294°
Arg. of periapsis
84.1058°
True anomaly
301.05444°
Mean anomaly
301.3531°
Eccentric anomaly
301.20383°
Mean motion
3.25073 °/min
Orbital period
110.74 mins
BSTAR
-0.00078416
Loading maneuver chart data...
Computing Atmospheric mass density...
Loading historical data...
Loading historical data...
Loading historical data...
Loading historical data...
Loading historical data...
Loading historical data...
Loading historical data...

Documentation

Showing up to 5 results
|